Location: Meanaryar
(48.4161°N, 4.7315°W)
Time: 00:34:32
(UTC+00:00)

SL-14 R/B - Visible Passes

Search period start: 24 January 2021 00:00
Search period end: 03 February 2021 00:00
Orbit: 518 x 554 km, 82.4° (Epoch: 23 January)

Date Brightness Start Highest point End Pass type
(mag) Time Alt. Az. Time Alt. Az. Time Alt. Az.
24 Jan 5.2 18:02:54 10° SW 18:06:24 31° WNW 18:09:58 10° N visible
25 Jan 5.1 17:54:14 10° SW 17:57:45 32° WNW 18:01:20 10° N visible
26 Jan 5.1 17:45:34 10° SW 17:49:07 32° WNW 17:52:42 10° N visible
27 Jan 5.1 17:36:54 10° SW 17:40:28 33° WNW 17:44:05 10° N visible
